Weather History for Belen, NM

Change the Weather History Date:

Monday, April 29, 2013

  Actual Average (KABQ) Record (KABQ)
Temperature  
Mean Temperature 64 °F 60 °F  
Max Temperature 87 °F 73 °F 88 °F (1943)
Min Temperature 42 °F 47 °F 31 °F (1991)
Degree Days  
Heating Degree Days 0 5  
Month to date heating degree days 272  
Since 1 July heating degree days 4099  
Cooling Degree Days 0 1  
Month to date cooling degree days 5  
Year to date cooling degree days 5  
Growing Degree Days 14 (Base 50)    
Moisture  
Dew Point 4 °F    
Average Humidity 9    
Maximum Humidity 13    
Minimum Humidity 5    
Precipitation  
Precipitation 0.00 in 0.01 in 1.28 in (1907)
Month to date precipitation 0.59  
Year to date precipitation 2.02  
Snow  
Snow 0.00 in - - ()
Month to date snowfall  
Since 1 July snowfall  
Snow Depth -    
Sea Level Pressure  
Sea Level Pressure 29.91 in    
Wind  
Wind Speed 4 mph (NW)    
Max Wind Speed 14 mph    
Max Gust Speed 32 mph    
Visibility 10 miles    
Events      
T = Trace of Precipitation, MM = Missing Value Source: NWS Daily Summary

Daily Weather History Graph

Daily Weather History Graph

Search for Another Location

Airport:

Trip Planner

Search our weather history database for the weather conditions in past years. The results will help you decide how hot, cold, wet, or windy it might be!

Date:

Astronomy

Apr. 29, 2013 Rise Set
Actual Time 6:18 AM MDT 7:50 PM MDT
Civil Twilight 5:52 AM MDT 8:17 PM MDT
Nautical Twilight 5:19 AM MDT 8:49 PM MDT
Astronomical Twilight 4:46 AM MDT 9:23 PM MDT
Moon No Moon Rise 9:46 AM MDT (4/29)
Length of Visible Light 14h 25m
Length of Day
13h 31m
Waning Gibbous, 79% of the Moon is Illuminated
Apr 29
Waning Gibbous
May 2
Last Quarter
May 9
New
May 17
First Quarter
May 24
Full

Hourly Weather History & Observations

Time (MDT) Temp. Windchill Dew Point Humidity Pressure Visibility Wind Dir Wind Speed Gust Speed Precip Events Conditions
12:15 AM 59.5 °F - 0.9 °F 9% 29.97 in 10.0 mi NE 4.6 mph - N/A   Clear
12:35 AM 58.5 °F - 0.5 °F 10% 29.97 in 10.0 mi ENE 4.6 mph - N/A   Clear
12:55 AM 57.0 °F - -0.4 °F 10% 29.97 in 10.0 mi NNE 5.8 mph - N/A   Clear
1:15 AM 55.6 °F - -1.1 °F 10% 29.97 in 10.0 mi Calm Calm - N/A   Clear
1:35 AM 50.2 °F - -2.7 °F 11% 29.96 in 10.0 mi SSE 3.5 mph - N/A   Clear
1:55 AM 52.0 °F - -1.1 °F 11% 29.95 in 10.0 mi Calm Calm - N/A   Clear
2:15 AM 52.2 °F - -1.1 °F 11% 29.95 in 10.0 mi WNW 4.6 mph - N/A   Clear
2:35 AM 49.6 °F - -3.3 °F 11% 29.95 in 10.0 mi West 3.5 mph - N/A   Clear
2:55 AM 51.8 °F - -3.5 °F 10% 29.95 in 10.0 mi WNW 5.8 mph - N/A   Clear
3:15 AM 50.9 °F - -4.0 °F 10% 29.95 in 10.0 mi West 4.6 mph - N/A   Clear
3:35 AM 48.0 °F - -5.1 °F 11% 29.95 in 10.0 mi NW 5.8 mph - N/A   Clear
3:55 AM 52.9 °F - -4.0 °F 10% 29.96 in 10.0 mi NW 3.5 mph - N/A   Clear
4:15 AM 45.9 °F 43.6 °F -6.0 °F 11% 29.97 in 10.0 mi North 4.6 mph - N/A   Clear
4:35 AM 53.4 °F - -1.3 °F 11% 29.97 in 10.0 mi NNE 3.5 mph - N/A   Clear
4:55 AM 47.5 °F - -3.8 °F 12% 29.97 in 10.0 mi Calm Calm - N/A   Clear
5:15 AM 48.9 °F - -2.4 °F 12% 29.97 in 10.0 mi Calm Calm - N/A   Clear
5:35 AM 45.5 °F - -4.5 °F 12% 29.98 in 10.0 mi Calm Calm - N/A   Clear
5:55 AM 42.6 °F 40.9 °F -5.1 °F 13% 29.98 in 10.0 mi NE 3.5 mph - N/A   Clear
6:15 AM 42.1 °F - -5.4 °F 13% 29.99 in 7.0 mi Calm Calm - N/A   Clear
6:35 AM 44.1 °F - -4.4 °F 13% 30.00 in 10.0 mi Calm Calm - N/A   Clear
6:55 AM 44.8 °F - -3.8 °F 13% 30.00 in 10.0 mi Calm Calm - N/A   Clear
7:15 AM 48.0 °F - -3.6 °F 12% 30.01 in 10.0 mi Calm Calm - N/A   Clear
7:35 AM 51.1 °F - -1.3 °F 12% 30.01 in 10.0 mi Calm Calm - N/A   Clear
7:55 AM 57.0 °F - 0.3 °F 10% 30.00 in 10.0 mi Calm Calm - N/A   Clear
8:15 AM 61.3 °F - 2.1 °F 9% 30.01 in 10.0 mi WNW 3.5 mph - N/A   Clear
8:35 AM 60.8 °F - 1.2 °F 9% 30.01 in 10.0 mi Calm Calm - N/A   Clear
8:55 AM 63.7 °F - 3.4 °F 9% 30.01 in 10.0 mi NE 3.5 mph - N/A   Clear
9:15 AM 63.1 °F - 9.0 °F 12% 30.00 in 10.0 mi ENE 4.6 mph - N/A   Clear
9:35 AM 65.5 °F - 5.4 °F 9% 30.00 in 10.0 mi Calm Calm - N/A   Clear
9:55 AM 66.7 °F - 5.0 °F 9% 30.00 in 10.0 mi Calm Calm - N/A   Clear
10:15 AM 68.9 °F - 5.7 °F 8% 30.00 in 10.0 mi Calm Calm - N/A   Clear
10:35 AM 71.1 °F - 4.8 °F 8% 29.99 in 10.0 mi East 3.5 mph - N/A   Clear
10:55 AM 72.7 °F - 4.8 °F 7% 29.99 in 10.0 mi Calm Calm - N/A   Clear
11:15 AM 74.3 °F - 6.3 °F 7% 29.98 in 10.0 mi Calm Calm - N/A   Clear
11:35 AM 75.4 °F - 7.2 °F 7% 29.98 in 10.0 mi Calm Calm - N/A   Clear
12:15 PM 78.6 °F - 7.9 °F 7% 29.96 in 10.0 mi WSW 3.5 mph - N/A   Clear
12:35 PM 80.1 °F - 8.6 °F 7% 29.95 in 10.0 mi Calm Calm - N/A   Clear
12:55 PM 80.8 °F - 10.0 °F 7% 29.94 in 10.0 mi Calm Calm - N/A   Clear
1:15 PM 81.5 °F - 11.8 °F 7% 29.93 in 10.0 mi Calm Calm - N/A   Clear
1:35 PM 82.4 °F - 11.3 °F 7% 29.91 in 10.0 mi NW 6.9 mph - N/A   Clear
1:55 PM 81.9 °F - 10.4 °F 7% 29.90 in 10.0 mi Calm Calm - N/A   Clear
2:15 PM 83.5 °F - 10.6 °F 6% 29.89 in 10.0 mi East 5.8 mph - N/A   Clear
2:55 PM 84.2 °F - 9.9 °F 6% 29.86 in 10.0 mi NW 4.6 mph - N/A   Clear
3:15 PM 84.7 °F - 8.8 °F 6% 29.85 in 10.0 mi South 5.8 mph - N/A   Clear
3:35 PM 86.5 °F - 7.7 °F 5% 29.84 in 10.0 mi West 10.4 mph 19.6 mph N/A   Clear
3:55 PM 87.3 °F - 7.7 °F 5% 29.83 in 10.0 mi NNW 10.4 mph 23.0 mph N/A   Clear
4:15 PM 85.3 °F - 7.9 °F 5% 29.82 in 10.0 mi NNW 4.6 mph - N/A   Clear
4:35 PM 85.3 °F - 8.6 °F 6% 29.82 in 10.0 mi WNW 13.8 mph 24.2 mph N/A   Clear
4:55 PM 86.0 °F - 9.1 °F 6% 29.81 in 10.0 mi NNE 4.6 mph - N/A   Clear
5:15 PM 84.6 °F - 9.9 °F 6% 29.80 in 10.0 mi NNW 9.2 mph 32.2 mph N/A   Clear
5:35 PM 84.0 °F - 10.4 °F 6% 29.81 in 10.0 mi West 13.8 mph 29.9 mph N/A   Clear
5:55 PM 83.8 °F - 10.4 °F 6% 29.80 in 10.0 mi North 4.6 mph - N/A   Scattered Clouds
6:15 PM 83.3 °F - 10.6 °F 6% 29.79 in 10.0 mi North 12.7 mph 17.3 mph N/A   Scattered Clouds
6:35 PM 83.8 °F - 9.5 °F 6% 29.79 in 10.0 mi NNW 12.7 mph 18.4 mph N/A   Scattered Clouds
7:15 PM 82.4 °F - 12.6 °F 7% 29.79 in 10.0 mi North 3.5 mph - N/A   Clear
7:35 PM 81.5 °F - 11.8 °F 7% 29.80 in 10.0 mi West 6.9 mph - N/A   Clear
7:55 PM 79.7 °F - 9.5 °F 7% 29.80 in 10.0 mi West 10.4 mph - N/A   Clear
8:15 PM 77.9 °F - 10.4 °F 8% 29.80 in 10.0 mi West 9.2 mph - N/A   Clear
8:35 PM 75.0 °F - 10.2 °F 8% 29.81 in 10.0 mi West 9.2 mph - N/A   Clear
8:55 PM 71.6 °F - 9.3 °F 9% 29.81 in 10.0 mi West 5.8 mph - N/A   Clear
9:15 PM 69.8 °F - 8.6 °F 9% 29.81 in 10.0 mi West 6.9 mph - N/A   Clear
9:35 PM 67.1 °F - 8.1 °F 10% 29.81 in 10.0 mi WNW 6.9 mph - N/A   Clear
10:15 PM 63.7 °F - 7.7 °F 11% 29.82 in 10.0 mi WNW 6.9 mph - N/A   Clear
10:35 PM 64.6 °F - 8.8 °F 11% 29.82 in 10.0 mi West 8.1 mph - N/A   Clear
10:55 PM 64.4 °F - 9.1 °F 11% 29.82 in 10.0 mi WNW 6.9 mph - N/A   Clear
11:15 PM 64.8 °F - 9.3 °F 11% 29.82 in 10.0 mi WNW 9.2 mph - N/A   Clear
11:35 PM 65.5 °F - 9.7 °F 11% 29.82 in 10.0 mi WNW 10.4 mph - N/A   Clear
11:55 PM 62.8 °F - 9.3 °F 12% 29.82 in 10.0 mi WNW 9.2 mph - N/A   Clear